Regional Weather Roundup
Issued by NWS Jackson, KY

Home | Current Version | Previous Version | Text Only | Print | Product List | Glossary Off
Versions: 1 2 3 4 5 6 7 8 9 10 11 12 13 14 15 16 17 18 19 20 21 22 23 24 25 26 27 28 29 30 31 32 33 34 35 36 37 38 39 40 41 42 43 44 45 46 47

000
ASUS43 KJKL 030810
RWRJKL

EAST KENTUCKY HOURLY WEATHER ROUNDUP
NATIONAL WEATHER SERVICE JACKSON KY
400 AM EDT MON AUG 03 2015

NOTE: "FAIR" INDICATES FEW OR NO CLOUDS BELOW 12,000 FEET WITH
NO SIGNIFICANT WEATHER AND/OR OBSTRUCTIONS TO VISIBILITY.

* THESE REPORTS ARE NOT UNDER NWS QUALITY CONTROL AND MAY NOT
  REPORT WEATHER SUCH AS PRECIPITATION AND FOG.

KYZ079-080-083-085-087-088-110-112-115-119-120-030900
...EASTERN KENTUCKY...

CITY           SKY/WX    TMP DP  RH WIND       PRES   REMARKS
JACKSON        CLEAR     65  61  87 CALM      29.93S
LONDON         CLEAR     64  60  87 CALM      29.93F
SOMERSET*      CLEAR     59  59 100 CALM      29.93F
MONTICELLO*    CLEAR     60  60 100 CALM      29.95F
WILLIAMSBURG*    N/A     61  61 100 CALM      29.94
MIDDLESBORO*   CLEAR     60  60  99 CALM      29.96F
HAZARD APT*    SUNNY     64  64 100 CALM      29.93S
BLACK MTN*       N/A     64  54  68 S6          N/A
PIKEVILLE APT* CLEAR     66  61  82 S5        29.94S
BIG SANDY*     SUNNY     66  63  89 S3        29.92S
MOREHEAD APT*  SUNNY     66  64  94 SW3       29.93R
$$

KYZ035-036-041-042-044-050-067-078-099-030900
...CENTRAL KENTUCKY...

CITY           SKY/WX    TMP DP  RH WIND       PRES   REMARKS
MT STERLING*   CLEAR     64  63  94 SW5       29.93R
FLEMING/MASON* CLEAR     63  63 100 SW5       29.91R
DANVILLE*      CLEAR     61  61 100 CALM      29.93S
RICHMOND*      CLEAR     68  61  77 S3        29.91S
LEXINGTON      CLEAR     65  61  87 S6        29.91S
FRANKFORT      CLEAR     64  59  83 SW5       29.88F
$$

KYZ091>093-OHZ055-061-077-WVZ005-015-034-035-042-030900
...SOUTHERN OHIO/WEST VIRGINIA...

CITY           SKY/WX    TMP DP  RH WIND       PRES   REMARKS
COVINGTON      PTCLDY    67  61  81 S7        29.87F
COLUMBUS       CLOUDY    70  60  70 SW6       29.85S
DAYTON         TSTM      64  61  90 N23G48    29.97R
WILMINGTON     PTCLDY    66  59  78 SW8       29.87S
HUNTINGTON     CLEAR     63  61  93 CALM      29.89F
CHARLESTON     PTCLDY    62  60  93 CALM      29.90F
PINEVILLE*     MOCLDY    61  61 100 MISG      30.01S
BECKLEY        CLOUDY    64  55  72 S3        29.99S
BLUEFIELD      MOCLDY    70  53  54 VRB3      30.02F
$$

VAZ002-007-008-TNZ017-027-036-066-071-030900
...SOUTHWEST VIRGINIA/EAST TENNESSEE...

CITY           SKY/WX    TMP DP  RH WIND       PRES   REMARKS
WISE*          CLEAR     64  54  68 S5        30.01F
ABINGDON*      PTCLDY    67  59  76 E3        29.98F
BRISTOL        PTCLDY    63  61  93 CALM      29.95F
KNOXVILLE      CLEAR     69  65  86 CALM      29.92S
OAK RIDGE      CLEAR     66  62  87 CALM      29.94S
CROSSVILLE     PTCLDY    63  59  87 CALM      29.98F
NASHVILLE      PTCLDY    66  64  93 S3        29.92S
$$

...KEY TO REMARKS...
VSB - VISIBILITY IN MILES
WCI - WIND CHILL INDEX
HX  - HEAT INDEX

$$


USA.gov is the U.S. government's official web portal to all federal, state and local government web resources and services.